Regional Weather Roundup
Issued by NWS Boston, MA

Current Version | Previous Version | Text Only | Print | Product List | Glossary On
Versions: 1 2 3 4 5 6 7 8 9 10 11 12 13 14 15 16 17 18 19 20 21 22 23 24 25 26 27
000
ASUS41 KBOX 282210
RWRBOX

REGIONAL WEATHER ROUNDUP
NATIONAL WEATHER SERVICE TAUNTON MA
600 PM EDT SUN AUG 28 2016

NOTE:  "FAIR" INDICATES FEW OR NO CLOUDS BELOW 12,000 FEET WITH NO
SIGNIFICANT WEATHER AND/OR OBSTRUCTIONS TO VISIBILITY.

MAZALL-282300-
EASTERN MASSACHUSETTS

CITY           SKY/WX    TMP DP  RH WIND       PRES   REMARKS
BOSTON         CLOUDY    76  63  64 SE12      30.16F
BEVERLY        MOSUNNY   73  66  78 SE10      30.17F
LAWRENCE       SUNNY     78  60  53 VRB6      30.18S
BEDFORD        SUNNY     81  59  47 E8        30.14F
BLUE HILL        N/A     78  59  51 S12G21    30.17F
NORWOOD        MOSUNNY   82  62  50 SE13      30.14F
MARSHFIELD     SUNNY     73  64  73 SE9G16    30.18F
PLYMOUTH       SUNNY     78  61  55 SE8       30.19F
TAUNTON        SUNNY     79  62  56 S9        30.17F
NEW BEDFORD    SUNNY     78  64  61 S10       30.18F
$$

MAZALL-282300-
CAPE COD AND THE ISLANDS

CITY           SKY/WX    TMP DP  RH WIND       PRES   REMARKS
FALMOUTH       SUNNY     73  63  68 SE15      30.23S
HYANNIS        SUNNY     72  63  73 SE12      30.19F
CHATHAM        SUNNY     70  65  84 SE9       30.22F
NANTUCKET      SUNNY     69  64  84 SE10      30.20F
MARTHAS VNYRD  SUNNY     73  60  63 SE12      30.20F
$$

MAZALL-282300-
CENTRAL AND WESTERN MASSACHUSETTS

CITY           SKY/WX    TMP DP  RH WIND       PRES   REMARKS
WORCESTER      SUNNY     79  59  50 SW10      30.20F
FITCHBURG      SUNNY     85  61  44 S12       30.16F
ORANGE         SUNNY     84  62  47 S10       30.15F
SPRINGFIELD    SUNNY     85  61  44 S13       30.13S
WESTFIELD      SUNNY     85  63  47 S14       30.14S
NORTH ADAMS    SUNNY     83  62  49 VRB5      30.14S
PITTSFIELD     SUNNY     81  61  50 SW12G17   30.16F
$$

RIZALL-282300-
RHODE ISLAND

CITY           SKY/WX    TMP DP  RH WIND       PRES   REMARKS
PROVIDENCE     MOSUNNY   78  59  51 S15       30.19F
NEWPORT        SUNNY     74  63  68 S10       30.20F
BLOCK ISLAND   SUNNY     75  62  64 S9        30.20F
SMITHFIELD     SUNNY     79  59  50 VRB6      30.19S
WESTERLY       SUNNY     76  61  59 S9        30.20F
$$

CTZALL-282300-
CONNECTICUT

CITY           SKY/WX    TMP DP  RH WIND       PRES   REMARKS
BRADLEY INTL   MOSUNNY   85  61  44 S10       30.15F
HARTFORD       SUNNY     86  63  45 S12       30.15S
BRIDGEPORT     SUNNY     82  64  54 SE6       30.17F
DANBURY        SUNNY     80  65  59 SE6       30.18F
GROTON         SUNNY     76  66  71 S9        30.19F
NEW HAVEN      MOSUNNY   82  62  50 S9        30.18F
CHESTER        FAIR      79  63  57 S7        30.20S
MERIDEN        SUNNY     83  60  45 S10       30.17S
WILLIMANTIC    SUNNY     82  60  47 S9        30.18F
OXFORD         MOSUNNY   81  63  54 S10       30.22F
$$

MEZ002-015-021-024-NHZ003-005-008-011-012-014-VTZ005-008-282300-
NORTHERN NEW ENGLAND

CITY           SKY/WX    TMP DP  RH WIND       PRES   REMARKS
PORTLAND ME    MOSUNNY   72  61  68 S10G22    30.17F
BANGOR ME      PTSUNNY   71  58  63 S16       30.16F
CONCORD NH     SUNNY     86  60  41 S13       30.13F
MANCHESTER NH  MOSUNNY   84  57  39 S14       30.13S
NASHUA NH      SUNNY     83  60  45 SE10      30.15S
PORTSMOUTH NH  MOSUNNY   73  61  64 S14G23    30.14F
JAFFREY NH     SUNNY     82  60  47 S8        30.18F
KEENE NH       SUNNY     83  65  54 S8        30.13F
BURLINGTON VT  PTSUNNY   84  65  52 S17G25    30.01F
MT. WASHINGTON NOT AVBL
$$

NYZ052-076-282300-
EASTERN NEW YORK

CITY           SKY/WX    TMP DP  RH WIND       PRES   REMARKS
ALBANY         MOSUNNY   85  63  47 S14       30.10F
NEW YORK CITY  MOSUNNY   83  60  45 SE14      30.16F
$$

ANZALL-282300-
MARINE OBSERVATIONS

STATION/POSITION TIME  TEMP    WIND        PRES    VSBY  WAVE
                       AIR SEA DIR/SP/G                  HT/PER
                 (UTC) (F)     (DEG/KT/KT) (MB)    (MI)  (FT/S)
BOSTON BUOY      2150   70 71  120/ 14/ 16 1021.4F         2/ 3
BUZZARDS BAY     2100   71     150/ 14/ 15 1023.3F
NANTUCKET SOUND  2150   71 76  140/ 12/ 14 1022.4F         1/ 3
MASS BAY-STELLWA 2104   70 69  130/ 14/ 17 1021.8F  1 7/8  1/ 3
ISLE OF SHOALS   2200   69     150/ 19/ 20 1021.1F
S OF BLOCK IS    2125      77                N/A           2/15
$$

......................KEY.........................
  SKY/WX - SKY CONDITION/PRESENT WEATHER
  TMP    - TEMPERATURE IN FAHRENHEIT
  DWPT   - DEWPOINT IN FAHRENHEIT
  RH     - RELATIVE HUMIDITY IN PERCENT
  WIND   - DIRECTION AND SPEED IN MPH
  PRES   - MEAN SEA LEVEL PRESSURE IN INCHES OF HG
  WCI    - WIND CHILL INDEX
  VSB    - VISIBILITY IN MILES
  HX     - HEAT INDEX
  TC     - TEMPERATURE IN CELSIUS
  VRB    - VARIABLE WIND DIRECTION
  N/A    - NOT AVAILABLE




USA.gov is the U.S. government's official web portal to all federal, state and local government web resources and services.